Flag for Brazil Weather past 2 weeks in Rio Branco, Acre, Brazil

73 °F

Drizzle. Partly sunny.

Feels Like: 70 °F
Forecast: N/A
Wind: 9 mph from South

Location: Rio Branco Airport

Current Time: Nov 30, 2015 at 5:52:36 PM

Latest Report: Nov 30, 2015 at 5:00 PM

Visibility: 3 mi

Pressure: 29.86 "Hg

Humidity: 94%

Dew point: 72 °F

Location of Rio BrancoLocation

Historic Weather in Rio Branco — Graph


Rio Branco temperature yesterday

Maximum temperature yesterday: 90 °F (at 2:00 PM)
Minimum temperature yesterday: 75 °F (at 12:00 AM)
Average temperature yesterday: 79 °F

Past Weeks' High & Low Weather Summary

High95 °F (Nov 19, 2:00 PM)100% (Nov 16, 5:00 AM)29.95 "Hg (Nov 16, 5:00 AM)
Low39 °F (Nov 22, 8:00 AM)44% (Nov 20, 1:00 PM)29.62 "Hg (Nov 20, 4:00 PM)
Average82 °F77%29.78 "Hg
* Reported Nov 15 4:00 PM — Nov 30 4:00 PM, Rio Branco, Weather by CustomWeather, © 2015

Note: Actual official high and low records may vary slightly from our data, if they occured in-between our weather recording intervals... More about our weather records


Rio Branco weather history for previous 24 hours

Time TempWeatherWind HumidityBarometerVisibility
4:00 PM
Mon, Nov 30
77 °FBroken clouds.9 mph83%29.83 "HgN/A
3:00 PM81 °FBroken clouds.12 mph79%29.83 "HgN/A
2:00 PM84 °FScattered clouds.8 mph74%29.86 "HgN/A
1:00 PM82 °FPartly sunny.7 mph74%29.89 "HgN/A
12:00 PM82 °FPartly sunny.7 mph74%29.89 "HgN/A
11:00 AM82 °FPartly sunny.7 mph74%29.92 "HgN/A
10:00 AM79 °FBroken clouds.7 mph84%29.95 "HgN/A
9:00 AM79 °FPartly sunny.8 mph84%29.92 "HgN/A
8:00 AM77 °FPartly sunny.6 mph89%29.92 "HgN/A
7:00 AM77 °FBroken clouds.8 mph89%29.92 "HgN/A
6:00 AM75 °FPartly sunny.3 mph94%29.89 "HgN/A
5:00 AM75 °FPassing clouds.5 mph89%29.86 "HgN/A
4:00 AM75 °FPassing clouds.5 mph94%29.83 "HgN/A
3:00 AM75 °FPassing clouds.5 mph94%29.83 "HgN/A
2:00 AM75 °FPartly cloudy.3 mph94%29.83 "HgN/A
1:00 AM75 °FMostly cloudy.6 mph94%29.83 "HgN/A
12:00 AM75 °FMostly cloudy.6 mph94%29.86 "HgN/A
11:00 PM
Sun, Nov 29
75 °FMostly cloudy.3 mph94%29.89 "HgN/A
10:00 PM75 °FLight rain. Mostly cloudy.2 mph94%29.89 "Hg6 mi
9:00 PM75 °FMostly cloudy.2 mph94%29.89 "HgN/A
8:00 PM75 °FLight rain. Overcast.2 mph94%N/AN/A
7:00 PM75 °FLight rain. Passing clouds.2 mph94%29.83 "HgN/A
6:00 PM77 °FThundershowers. Partly sunny.5 mph89%29.80 "HgN/A
5:00 PM79 °FBroken clouds.10 mph84%29.77 "HgN/A
Weather by CustomWeather, © 2015

See weather overviewHow to use our weather pages